Tracking 18785 objects as of 23-July-2017
HD Live streaming from Space Station
objects crossing your sky now
MAYAK may become the brightest orbital object in the night sky!
Where is MAYAK now?
How to spot MAYAK

OPS 9326 (IDSCS 13)

Track OPS 9326 (IDSCS 13) now!
OPS 9326 (IDSCS 13) is classified as:


NORAD ID: 2653
Int'l Code: 1967-003F
Perigee: 33,643.5 km
Apogee: 33,996.3 km
Inclination: 2.3 °
Period: 1,336.4 minutes
Semi major axis: 40190 km
RCS: 0.7944 m2 (medium)
Launch date: January 18, 1967
Source: United States (US)
Launch site: AIR FORCE EASTERN TEST RANGE (AFETR)
Your satellite tracking list
Your tracking list is empty





NASA's NSSDC Master Catalog

Two Line Element Set (TLE):
1  2653U 67003F   17179.98032128 -.00000084 +00000-0 +00000-0 0  9993
2  2653 002.3302 054.5518 0043894 352.5512 359.4581 01.07748533097433
Source of the keplerian elements: AFSPC